Skip Page Navigation
NASA JPL Caltech
NASA Logo - Jet Propulsion Laboratory + View the NASA Portal
+ Center for Near-Earth Object Studies
JPL Home Earth Solar System Stars & Galaxies Technology
JPL Solar System Dynamics
BODIES ORBITS EPHEMERIDES TOOLS PHYSICAL DATA DISCOVERY FAQ SITE MAP
JPL Small-Body Database Browser
Search: [ help ]  
441119 (2007 TV48)
Classification: Main-belt Asteroid          SPK-ID: 2441119
Ephemeris | Orbit Diagram | Orbital Elements | Mission Design | Physical Parameters | Discovery Circumstances ]

[ show orbit diagram ]
Orbital Elements at Epoch 2459000.5 (2020-May-31.0) TDB
Reference: JPL 13 (heliocentric ecliptic J2000)
 Element Value Uncertainty (1-sigma)   Units 
e .2578913652330827 1.1708e-07  
a 2.589797307223471 5.1617e-08 au
q 1.921910943986649 3.37e-07 au
i 2.503810800684998 1.0215e-05 deg
node 348.4165980780912 0.00011992 deg
peri 40.4534370606004 0.00013256 deg
M 9.442364559637888 6.4996e-05 deg
tp 2458960.572202651574
(2020-Apr-21.07220265)
0.00027369 TDB
period 1522.288930346545
4.17
4.5511e-05
1.246e-07
d
yr
n .2364859868737579 7.0701e-09 deg/d
Q 3.257683670460294 6.4929e-08 au
  Orbit Determination Parameters
   # obs. used (total)      155  
   data-arc span      5665 days (15.51 yr)  
   first obs. used      2003-12-29  
   last obs. used      2019-07-03  
   planetary ephem.      DE431  
   SB-pert. ephem.      SB431-N16  
   condition code      0  
   norm. resid. RMS      .56911  
   source      ORB  
   producer      Otto Matic  
   solution date      2019-Sep-24 07:41:42  

Additional Information
 Earth MOID = .927725 au 
 Jupiter MOID = 2.20127 au 
 T_jup = 3.371 
[ show covariance matrix ]

Ephemeris | Orbit Diagram | Orbital Elements | Mission Design | Physical Parameters | Discovery Circumstances ]

Physical Parameter Table
Parameter Symbol Value Units Sigma Reference Notes
absolute magnitude H 17.6   n/a MPO477078  

441119 (2007 TV48)          Discovered 2007-Sep-14 by Mt. Lemmon Survey at Mount Lemmon
Reference: Last Updated: 2015-09-02
Ephemeris | Orbit Diagram | Orbital Elements | Mission Design | Physical Parameters | Discovery Circumstances ]
ABOUT SSD CREDITS/AWARDS PRIVACY/COPYRIGHT GLOSSARY LINKS
FirstGov 2020-Oct-25 14:45 UT
(server date/time)  
NASA Home Page
Site Manager:   Ryan S. Park
Webmaster  Alan B. Chamberlin